Flag for U.S.A. Weather past 2 weeks in Flagstaff, Arizona, U.S.A.

Now
32 °F

Clear.


Feels Like: 32 °F
Forecast: 30 / 70 °F
Wind: No wind

Location: Flagstaff Pulliam Airport

Current Time: Mar 27, 2015 at 12:08:52 AM

Latest Report: Mar 26, 2015 at 10:57 PM


Visibility: 10 mi

Pressure: 30.26 "Hg

Humidity: 50%

Dew point: 15 °F

Location of FlagstaffLocation

Historic Weather in Flagstaff — Graph

°F

Flagstaff temperature yesterday

Maximum temperature yesterday: 63 °F (at 4:57 PM)
Minimum temperature yesterday: 32 °F (at 10:57 PM)
Average temperature yesterday: 47 °F

Past Weeks' High & Low Weather Summary

 TemperatureHumidityPressure
High66 °F (Mar 16, 3:57 PM)97% (Mar 19, 7:57 PM)30.31 "Hg (Mar 19, 7:57 PM)
Low25 °F (Mar 20, 5:57 AM)10% (Mar 20, 5:57 PM)29.85 "Hg (Mar 19, 3:57 AM)
Average46 °F47%30.07 "Hg
* Reported Mar 11 10:57 PM — Mar 26 10:57 PM, Flagstaff, Weather by CustomWeather, © 2015

Note: Actual official high and low records may vary slightly from our data, if they occured in-between our weather recording intervals... More about our weather records

Advertising

Flagstaff weather history for previous 24 hours

 ConditionsComfort  
Time TempWeatherWind HumidityBarometerVisibility
10:57 PM
Thu, Mar 26
32 °FClear.No wind50%30.26 "Hg10 mi
9:57 PM34 °FClear.No wind46%30.27 "Hg10 mi
8:57 PM39 °FClear.No wind38%30.24 "Hg10 mi
7:57 PM46 °FClear.3 mph27%30.22 "Hg10 mi
6:57 PM52 °FClear.7 mph21%30.18 "Hg10 mi
5:57 PM59 °FSunny.7 mph15%30.14 "Hg10 mi
4:57 PM63 °FSunny.6 mph13%30.11 "Hg10 mi
3:57 PM61 °FSunny.8 mph14%30.13 "Hg10 mi
2:57 PM61 °FSunny.3 mph13%30.13 "Hg10 mi
1:57 PM60 °FSunny.9 mph12%30.14 "Hg10 mi
12:57 PM56 °FSunny.8 mph13%30.18 "Hg10 mi
11:57 AM54 °FSunny.12 mph14%30.20 "Hg10 mi
10:57 AM53 °FSunny.17 mph15%30.24 "Hg10 mi
9:57 AM50 °FSunny.16 mph17%30.25 "Hg10 mi
8:57 AM47 °FSunny.17 mph19%30.23 "Hg10 mi
7:57 AM43 °FSunny.21 mph21%30.19 "Hg10 mi
6:57 AM39 °FSunny.14 mph23%30.20 "Hg10 mi
5:57 AM38 °FClear.7 mph25%30.15 "Hg10 mi
4:57 AM40 °FClear.16 mph24%30.12 "Hg10 mi
3:57 AM39 °FClear.13 mph31%30.11 "Hg10 mi
2:57 AM39 °FClear.13 mph33%30.10 "Hg10 mi
1:57 AM41 °FClear.9 mph35%30.11 "Hg10 mi
12:57 AM43 °FClear.15 mph35%30.11 "Hg10 mi
Weather by CustomWeather, © 2015

See weather overviewHow to use our weather pages